Location: Chiroubles
(46.1812°N, 4.6660°E)
Time: 23:51:31
(UTC+00:00)

Courier 1B - Pass Details

Date: 02 August 2021
Orbit: 963 x 1209 km, 28.3° (Epoch: 24 September)

Event Time Altitude Azimuth Distance (km) Brightness Sun altitude
Rises 21:33:01 0° 248° (WSW) 4,088 10.9 -19.4°
Reaches altitude 10° 21:37:10 10° 229° (SW) 3,095 10.0 -19.8°
Enters shadow 21:41:10 16° 197° (SSW) 2,625 9.4 -20.2°
